Tracking 19283 objects as of 18-Nov-2018
HD Live streaming from Space Station
objects crossing your sky now

COSMOS 1341

Track COSMOS 1341 now!
COSMOS 1341 is classified as:


NORAD ID: 13080
Int'l Code: 1982-016A
Perigee: 3,108.4 km
Apogee: 37,271.9 km
Inclination: 67.5 °
Period: 718.0 minutes
Semi major axis: 26561 km
RCS: 8.091 m2 (large)
Launch date: March 3, 1982
Source: Commonwealth of Independent States (former USSR) (CIS)
Launch site: PLESETSK MISSILE AND SPACE COMPLEX (PKMTR)
aabbcc
Your satellite tracking list
Your tracking list is empty




NASA's NSSDC Master Catalog

Two Line Element Set (TLE):
1 13080U 82016A   18321.44872982 -.00000431 +00000-0 +00000-0 0  9997
2 13080 067.5230 190.1141 6431118 028.9110 355.1940 02.00554773179220
Source of the keplerian elements: AFSPC